NIMBUS 2 DEB, 42436

Orbit data source: Space-Track

NIMBUS 2 DEB, 42436 is space debris in SSO originally from a launch on Sun, 15 May 1966 UTC launched from the Air Force Western Test Range (AFWTR). Debris objects in space refer to the collection of defunct objects orbiting the Earth. Examples of debris include non-operational satellites, rocket bodies, and fragments generated from explosions, collisions, or faulty payload assembly.

Loading next visibility...
Identifier
42436, 1966-040BP
Orbit
SSO
Country
Flag of USUS
Related business
Manufacturer
Unknown
Mission
Spacecraft
Bus & Motor
Unknown
Mass
Unknown
Launch date (UTC)
1966-05-15 (59 years ago)
Launch vehicle
Unknown
Launch site
Air Force Western Test Range (AFWTR)
Object type
Payload
Rocket body
Debris
Shape & HBR
Unknown
Radar Cross Section
Small (<0.1 m²)

Expand to show TLE details & history
Last TLE update: 2 days ago

TLE from 2 days ago
0 NIMBUS 2 DEB
1 42436U 66040BP  25259.29918593  .00001923  00000-0  33233-2 0  9995
2 42436 100.3203  96.5603 0045803 114.2604 246.3320 13.45087017503090
Epoch: 2025-09-16T07:10Z
TLE epoch observation values (Epoch: 2025-09-16T07:10:49.664Z)
Latitude
-0.00003°
Longitude
-6.63811°
Altitude
1,107.012 km
Speed
7.292 km/s
True Right ascension
06h 26m 14s
True Declination
0° 00' 00"
Sunlit
Object was in daylight at epoch
Visualization orbit readout
Latitude
Unknown
Longitude
Unknown
Altitude
Unknown
Speed
Unknown
Apparent Right ascension
Unknown
Apparent Declination
Unknown
Sunlit
N/A
Visualization observer readout
Local Sidereal Time
00:21:23
Azimuth
Unknown
Elevation
Unknown
Doppler factor
Unknown
Orbital elements
Apogee altitude
1,121.926 km
Perigee altitude
1,053.534 km
Semi-major axis
7,465.867 km
Eccentricity
0.00458
Inclination
100.3203°
RAAN
96.5603°
Arg. of periapsis
114.2604°
True anomaly
245.85239°
Mean anomaly
246.332°
Eccentric anomaly
246.09209°
Mean motion
3.36452 °/min
Orbital period
107 mins
BSTAR
0.0033233
Loading maneuver chart data...
Computing Atmospheric mass density...
Loading historical data...
Loading historical data...
Loading historical data...
Loading historical data...
Loading historical data...
Loading historical data...
Loading historical data...

Documentation

Showing up to 5 results
|